Location: Casilda
(33.0440°S, 61.1680°W)
Time: 18:10:29
(UTC-03:00)

ISS - Pass Details

Date: 26 November 2020
Orbit: 418 x 420 km, 51.6° (Epoch: 04 December)

Event Time Altitude Azimuth Distance (km) Brightness Sun altitude
Exits shadow 04:00:29 37° 36° (NE) 673 -2.9 -19.7°
Maximum altitude 04:00:46 38° 49° (NE) 663 -2.8 -19.6°
Drops below altitude 10° 04:03:58 10° 118° (ESE) 1,523 0.2 -19.1°
Sets 04:06:10 0° 126° (SE) 2,396 1.7 -18.8°
